| time (UTC) | temp C | wind direction | speed KPH | gust KPH | rain 1hr cm | rain 24hr cm | rain mn cm | humidity % | barometer mb |
| 20260506201420 | 20 | 235 | 4.8 | 4.8 | 0.00 | 0.00 | 0.00 | 67 | 1016.7 |
| 20260506200916 | 20 | 19 | 17.7 | 24.1 | 0.00 | 0.00 | 0.00 | 66 | 1016.9 |
| 20260506200412 | 21 | 255 | 9.7 | 12.9 | 0.00 | 0.00 | 0.00 | 66 | 1017.0 |
| 20260506195909 | 21 | 320 | 8.0 | 11.3 | 0.00 | 0.00 | 0.00 | 64 | 1016.9 |
| 20260506195407 | 21 | 259 | 6.4 | 9.7 | 0.00 | 0.00 | 0.00 | 64 | 1016.9 |
| 20260506194903 | 20 | 293 | 4.8 | 8.0 | 0.00 | 0.00 | 0.00 | 65 | 1016.8 |
| 20260506194400 | 22 | 302 | 6.4 | 8.0 | 0.00 | 0.00 | 0.00 | 63 | 1016.9 |
| 20260506193857 | 21 | 242 | 6.4 | 9.7 | 0.00 | 0.00 | 0.00 | 64 | 1016.9 |
| 20260506193354 | 21 | 313 | 8.0 | 9.7 | 0.00 | 0.00 | 0.00 | 63 | 1016.9 |
| 20260506192850 | 21 | 305 | 9.7 | 11.3 | 0.00 | 0.00 | 0.00 | 63 | 1016.8 |
| 20260506192347 | 21 | 342 | 9.7 | 11.3 | 0.00 | 0.00 | 0.00 | 62 | 1016.8 |
| 20260506191844 | 21 | 267 | 4.8 | 8.0 | 0.00 | 0.00 | 0.00 | 64 | 1016.9 |
| 20260506191340 | 20 | 302 | 6.4 | 9.7 | 0.00 | 0.00 | 0.00 | 65 | 1017.0 |
| 20260506190837 | 21 | 264 | 3.2 | 4.8 | 0.00 | 0.00 | 0.00 | 65 | 1017.0 |
| 20260506190333 | 21 | 282 | 3.2 | 4.8 | 0.00 | 0.00 | 0.00 | 63 | 1016.9 |
| 20260506185831 | 21 | 326 | 12.9 | 14.5 | 0.00 | 0.00 | 0.00 | 63 | 1017.1 |
| 20260506185328 | 21 | 337 | 8.0 | 12.9 | 0.00 | 0.00 | 0.00 | 63 | 1017.2 |
| 20260506184825 | 21 | 221 | 4.8 | 8.0 | 0.00 | 0.00 | 0.00 | 64 | 1017.0 |
| 20260506184322 | 20 | 311 | 8.0 | 12.9 | 0.00 | 0.00 | 0.00 | 64 | 1017.1 |
| 20260506183819 | 21 | 331 | 8.0 | 9.7 | 0.00 | 0.00 | 0.00 | 63 | 1017.1 |
| 20260506183314 | 21 | 306 | 6.4 | 8.0 | 0.00 | 0.00 | 0.00 | 64 | 1017.3 |
| 20260506182811 | 21 | 275 | 4.8 | 9.7 | 0.00 | 0.00 | 0.00 | 64 | 1017.2 |
| 20260506182309 | 21 | 322 | 6.4 | 9.7 | 0.00 | 0.00 | 0.00 | 63 | 1017.2 |
| 20260506181807 | 21 | 247 | 6.4 | 11.3 | 0.00 | 0.00 | 0.00 | 63 | 1017.2 |
| 20260506181304 | 21 | 339 | 4.8 | 8.0 | 0.00 | 0.00 | 0.00 | 63 | 1017.3 |
| 20260506180801 | 21 | 290 | 6.4 | 9.7 | 0.00 | 0.00 | 0.00 | 63 | 1017.2 |
| 20260506180257 | 20 | 257 | 4.8 | 4.8 | 0.00 | 0.00 | 0.00 | 64 | 1017.3 |
| 20260506175753 | 20 | 303 | 4.8 | 8.0 | 0.00 | 0.00 | 0.00 | 66 | 1017.3 |
| 20260506175250 | 20 | 194 | 0.0 | 1.6 | 0.00 | 0.00 | 0.00 | 66 | 1017.3 |
| 20260506174748 | 20 | 271 | 3.2 | 3.2 | 0.00 | 0.00 | 0.00 | 67 | 1017.3 |
| 20260506174244 | 20 | 211 | 1.6 | 3.2 | 0.00 | 0.00 | 0.00 | 69 | 1017.2 |
| 20260506173742 | 20 | 261 | 3.2 | 3.2 | 0.00 | 0.00 | 0.00 | 69 | 1017.4 |
| 20260506173239 | 19 | 206 | 1.6 | 1.6 | 0.00 | 0.00 | 0.00 | 70 | 1017.4 |
| 20260506172736 | 19 | 216 | 1.6 | 1.6 | 0.00 | 0.00 | 0.00 | 70 | 1017.4 |
| 20260506172232 | 18 | 265 | 3.2 | 3.2 | 0.00 | 0.00 | 0.00 | 71 | 1017.5 |
| 20260506171730 | 18 | 268 | 4.8 | 8.0 | 0.00 | 0.00 | 0.00 | 70 | 1017.3 |
| 20260506171227 | 18 | 216 | 1.6 | 1.6 | 0.00 | 0.00 | 0.00 | 71 | 1017.6 |
| 20260506170725 | 17 | 233 | 3.2 | 3.2 | 0.00 | 0.00 | 0.00 | 72 | 1017.4 |
| 20260506170221 | 17 | 265 | 3.2 | 4.8 | 0.00 | 0.00 | 0.00 | 74 | 1017.5 |
| 20260506165720 | 17 | 292 | 4.8 | 4.8 | 0.00 | 0.00 | 0.00 | 74 | 1017.3 |
| 20260506165217 | 17 | 2 | 4.8 | 8.0 | 0.00 | 0.00 | 0.00 | 73 | 1017.4 |
| 20260506164714 | 17 | 228 | 4.8 | 4.8 | 0.00 | 0.00 | 0.00 | 75 | 1017.2 |
| 20260506164211 | 17 | 219 | 3.2 | 4.8 | 0.00 | 0.00 | 0.00 | 75 | 1017.4 |
| 20260506163707 | 17 | 200 | 1.6 | 1.6 | 0.00 | 0.00 | 0.00 | 75 | 1017.3 |
| 20260506163202 | 16 | 232 | 1.6 | 3.2 | 0.00 | 0.00 | 0.00 | 77 | 1017.6 |
| 20260506162658 | 16 | 260 | 3.2 | 3.2 | 0.00 | 0.00 | 0.00 | 76 | 1017.4 |
| 20260506162156 | 16 | 257 | 3.2 | 4.8 | 0.00 | 0.00 | 0.00 | 76 | 1017.5 |
| 20260506161653 | 16 | 202 | 0.0 | 1.6 | 0.00 | 0.00 | 0.00 | 77 | 1017.4 |
| 20260506161149 | 16 | 227 | 1.6 | 3.2 | 0.00 | 0.00 | 0.00 | 79 | 1017.3 |
| 20260506160647 | 16 | 236 | 1.6 | 1.6 | 0.00 | 0.00 | 0.00 | 80 | 1017.3 |
| 20260506160144 | 16 | 261 | 1.6 | 3.2 | 0.00 | 0.00 | 0.00 | 80 | 1017.4 |
| 20260506155643 | 15 | 175 | 1.6 | 1.6 | 0.00 | 0.00 | 0.00 | 81 | 1017.6 |
| 20260506155139 | 15 | 212 | 1.6 | 3.2 | 0.00 | 0.00 | 0.00 | 82 | 1017.4 |
| 20260506153241 | 13 | 232 | 1.6 | 3.2 | 0.00 | 0.00 | 0.00 | 85 | 1017.4 |
| 20260506152738 | 14 | 225 | 3.2 | 3.2 | 0.00 | 0.00 | 0.00 | 84 | 1017.4 |
| 20260506152236 | 14 | 207 | 1.6 | 1.6 | 0.00 | 0.00 | 0.00 | 85 | 1017.5 |
| 20260506151735 | 13 | 197 | 0.0 | 1.6 | 0.00 | 0.00 | 0.00 | 85 | 1017.5 |
| 20260506151231 | 13 | 197 | 1.6 | 3.2 | 0.00 | 0.00 | 0.00 | 85 | 1017.7 |
| 20260506150727 | 14 | 198 | 1.6 | 1.6 | 0.00 | 0.00 | 0.00 | 85 | 1017.6 |
| 20260506150224 | 13 | 192 | 0.0 | 0.0 | 0.00 | 0.00 | 0.00 | 88 | 1017.7 |
| 20260506145722 | 13 | 252 | 3.2 | 3.2 | 0.00 | 0.00 | 0.00 | 88 | 1017.6 |
| 20260506145218 | 13 | 231 | 1.6 | 3.2 | 0.00 | 0.00 | 0.00 | 87 | 1017.5 |
| 20260506144715 | 13 | 189 | 0.0 | 0.0 | 0.00 | 0.00 | 0.00 | 88 | 1017.6 |
| 20260506144212 | 12 | 194 | 0.0 | 0.0 | 0.00 | 0.00 | 0.00 | 89 | 1017.5 |
| 20260506143710 | 12 | 195 | 0.0 | 1.6 | 0.00 | 0.00 | 0.00 | 90 | 1017.6 |
| 20260506143208 | 12 | 188 | 0.0 | 1.6 | 0.00 | 0.00 | 0.00 | 90 | 1017.5 |
| 20260506142706 | 11 | 195 | 0.0 | 0.0 | 0.00 | 0.00 | 0.00 | 92 | 1017.4 |
| 20260506142203 | 11 | 194 | 0.0 | 0.0 | 0.00 | 0.00 | 0.00 | 93 | 1017.4 |
| 20260506141701 | 10 | 203 | 1.6 | 1.6 | 0.00 | 0.00 | 0.00 | 94 | 1017.4 |
| 20260506141159 | 10 | 198 | 0.0 | 0.0 | 0.00 | 0.00 | 0.00 | 95 | 1017.2 |
| 20260506140656 | 10 | 196 | 0.0 | 0.0 | 0.00 | 0.00 | 0.00 | 97 | 1017.1 |
| 20260506140153 | 10 | 196 | 0.0 | 0.0 | 0.00 | 0.00 | 0.00 | 97 | 1017.1 |
| 20260506135650 | 9 | 197 | 0.0 | 0.0 | 0.00 | 0.00 | 0.00 | 97 | 1017.1 |
| 20260506135146 | 9 | 194 | 0.0 | 0.0 | 0.00 | 0.00 | 0.00 | 97 | 1017.1 |
| 20260506134643 | 9 | 190 | 0.0 | 0.0 | 0.00 | 0.00 | 0.00 | 97 | 1017.3 |
| 20260506134139 | 9 | 198 | 0.0 | 0.0 | 0.00 | 0.00 | 0.00 | 97 | 1016.7 |
| 20260506133636 | 8 | 189 | 0.0 | 0.0 | 0.00 | 0.00 | 0.00 | 97 | 1016.8 |
| 20260506133133 | 8 | 188 | 0.0 | 0.0 | 0.00 | 0.00 | 0.00 | 98 | 1016.8 |
| 20260506132631 | 8 | 192 | 0.0 | 0.0 | 0.00 | 0.00 | 0.00 | 98 | 1016.8 |
| 20260506132127 | 8 | 191 | 1.6 | 1.6 | 0.00 | 0.00 | 0.00 | 98 | 1016.7 |
| 20260506131625 | 8 | 183 | 1.6 | 1.6 | 0.00 | 0.00 | 0.00 | 98 | 1016.7 |
| 20260506131121 | 8 | 195 | 0.0 | 0.0 | 0.00 | 0.00 | 0.00 | 98 | 1016.8 |
| 20260506130618 | 8 | 195 | 0.0 | 0.0 | 0.00 | 0.00 | 0.00 | 98 | 1016.7 |
| 20260506130116 | 8 | 192 | 0.0 | 0.0 | 0.00 | 0.00 | 0.00 | 98 | 1016.6 |
| 20260506125614 | 8 | 179 | 0.0 | 0.0 | 0.00 | 0.00 | 0.00 | 98 | 1016.6 |
| 20260506125111 | 8 | 193 | 0.0 | 0.0 | 0.00 | 0.00 | 0.00 | 98 | 1016.5 |
| 20260506124609 | 8 | 190 | 0.0 | 0.0 | 0.00 | 0.00 | 0.00 | 98 | 1016.7 |
| 20260506124106 | 8 | 194 | 0.0 | 0.0 | 0.00 | 0.00 | 0.00 | 98 | 1016.6 |
| 20260506123604 | 8 | 195 | 0.0 | 0.0 | 0.00 | 0.00 | 0.00 | 98 | 1016.7 |
| 20260506123102 | 8 | 190 | 0.0 | 0.0 | 0.00 | 0.00 | 0.00 | 98 | 1016.8 |
| 20260506122558 | 8 | 194 | 0.0 | 0.0 | 0.00 | 0.00 | 0.00 | 98 | 1016.8 |
| 20260506122057 | 8 | 190 | 1.6 | 1.6 | 0.00 | 0.00 | 0.00 | 98 | 1016.8 |
| 20260506121554 | 8 | 192 | 0.0 | 1.6 | 0.00 | 0.00 | 0.00 | 98 | 1016.8 |
| 20260506121050 | 8 | 195 | 0.0 | 0.0 | 0.00 | 0.00 | 0.00 | 98 | 1016.8 |
| 20260506120548 | 8 | 193 | 0.0 | 0.0 | 0.00 | 0.00 | 0.00 | 98 | 1016.9 |
| 20260506120045 | 8 | 187 | 0.0 | 0.0 | 0.00 | 0.00 | 0.00 | 98 | 1016.8 |
| 20260506115543 | 8 | 191 | 0.0 | 0.0 | 0.00 | 0.00 | 0.00 | 98 | 1016.8 |
| 20260506115041 | 8 | 192 | 0.0 | 0.0 | 0.00 | 0.00 | 0.00 | 98 | 1016.7 |
| 20260506114538 | 8 | 180 | 0.0 | 0.0 | 0.00 | 0.00 | 0.00 | 98 | 1016.7 |
| 20260506114037 | 8 | 195 | 0.0 | 0.0 | 0.00 | 0.00 | 0.00 | 98 | 1016.6 |
| 20260506113534 | 8 | 197 | 0.0 | 0.0 | 0.00 | 0.00 | 0.00 | 98 | 1016.8 |
| 20260506113031 | 8 | 196 | 0.0 | 0.0 | 0.00 | 0.00 | 0.00 | 98 | 1016.7 |
| 20260506112528 | 8 | 194 | 0.0 | 0.0 | 0.00 | 0.00 | 0.00 | 98 | 1016.6 |
| 20260506112025 | 8 | 193 | 0.0 | 0.0 | 0.00 | 0.00 | 0.00 | 98 | 1016.8 |
| 20260506111523 | 8 | 195 | 0.0 | 0.0 | 0.00 | 0.00 | 0.00 | 98 | 1016.7 |
| 20260506111020 | 8 | 192 | 0.0 | 0.0 | 0.00 | 0.00 | 0.00 | 98 | 1016.7 |
| 20260506110518 | 8 | 195 | 0.0 | 0.0 | 0.00 | 0.00 | 0.00 | 98 | 1016.7 |
| 20260506110015 | 9 | 190 | 0.0 | 0.0 | 0.00 | 0.00 | 0.00 | 98 | 1016.7 |
| 20260506105510 | 9 | 192 | 0.0 | 0.0 | 0.00 | 0.00 | 0.00 | 98 | 1016.7 |
| 20260506105008 | 9 | 192 | 0.0 | 0.0 | 0.00 | 0.00 | 0.00 | 98 | 1016.4 |
| 20260506104506 | 9 | 194 | 1.6 | 1.6 | 0.00 | 0.00 | 0.00 | 98 | 1016.6 |
| 20260506104004 | 9 | 196 | 0.0 | 1.6 | 0.00 | 0.00 | 0.00 | 97 | 1016.6 |
| 20260506103501 | 9 | 192 | 1.6 | 1.6 | 0.00 | 0.00 | 0.00 | 97 | 1016.7 |
| 20260506102957 | 9 | 191 | 1.6 | 1.6 | 0.00 | 0.00 | 0.00 | 97 | 1016.5 |
| 20260506102456 | 9 | 197 | 0.0 | 0.0 | 0.00 | 0.00 | 0.00 | 97 | 1016.6 |
| 20260506101953 | 9 | 191 | 0.0 | 1.6 | 0.00 | 0.00 | 0.00 | 97 | 1016.7 |
| 20260506101449 | 9 | 189 | 0.0 | 0.0 | 0.00 | 0.00 | 0.00 | 97 | 1016.6 |
| 20260506100946 | 9 | 185 | 1.6 | 1.6 | 0.00 | 0.00 | 0.00 | 98 | 1016.8 |
| 20260506100445 | 9 | 189 | 0.0 | 0.0 | 0.00 | 0.00 | 0.00 | 98 | 1016.7 |
| 20260506095942 | 9 | 188 | 0.0 | 0.0 | 0.00 | 0.00 | 0.00 | 98 | 1016.6 |
| 20260506095441 | 9 | 195 | 0.0 | 0.0 | 0.00 | 0.00 | 0.00 | 98 | 1016.6 |
| 20260506094936 | 9 | 194 | 0.0 | 0.0 | 0.00 | 0.00 | 0.00 | 98 | 1016.6 |
| 20260506094435 | 9 | 192 | 0.0 | 0.0 | 0.00 | 0.00 | 0.00 | 98 | 1016.7 |
| 20260506093932 | 9 | 195 | 0.0 | 0.0 | 0.00 | 0.00 | 0.00 | 98 | 1016.9 |
| 20260506093430 | 9 | 194 | 0.0 | 0.0 | 0.00 | 0.00 | 0.00 | 98 | 1016.7 |
| 20260506092928 | 9 | 191 | 0.0 | 0.0 | 0.00 | 0.00 | 0.00 | 98 | 1016.8 |
| 20260506092426 | 9 | 194 | 0.0 | 0.0 | 0.00 | 0.00 | 0.00 | 98 | 1016.8 |
| 20260506091922 | 9 | 196 | 0.0 | 0.0 | 0.00 | 0.00 | 0.00 | 98 | 1016.7 |
| 20260506091420 | 9 | 197 | 0.0 | 0.0 | 0.00 | 0.00 | 0.00 | 98 | 1016.9 |
| 20260506090917 | 9 | 198 | 0.0 | 0.0 | 0.00 | 0.00 | 0.00 | 98 | 1017.0 |
| 20260506090415 | 9 | 195 | 0.0 | 0.0 | 0.00 | 0.00 | 0.00 | 98 | 1017.0 |
| 20260506085911 | 10 | 199 | 0.0 | 0.0 | 0.00 | 0.00 | 0.00 | 98 | 1017.0 |
| 20260506085408 | 10 | 198 | 0.0 | 0.0 | 0.00 | 0.00 | 0.00 | 98 | 1016.8 |
| 20260506084904 | 10 | 191 | 0.0 | 0.0 | 0.00 | 0.00 | 0.00 | 98 | 1016.9 |
| 20260506084401 | 10 | 197 | 0.0 | 0.0 | 0.00 | 0.00 | 0.00 | 98 | 1016.9 |
| 20260506083857 | 10 | 195 | 0.0 | 0.0 | 0.00 | 0.00 | 0.00 | 98 | 1017.0 |
| 20260506083355 | 10 | 190 | 0.0 | 0.0 | 0.00 | 0.00 | 0.00 | 98 | 1017.1 |
| 20260506082852 | 10 | 193 | 0.0 | 0.0 | 0.00 | 0.00 | 0.00 | 98 | 1017.0 |
| 20260506082349 | 10 | 194 | 0.0 | 0.0 | 0.00 | 0.00 | 0.00 | 99 | 1017.2 |
| 20260506081845 | 10 | 187 | 0.0 | 0.0 | 0.00 | 0.00 | 0.00 | 98 | 1017.2 |
| 20260506081344 | 10 | 197 | 0.0 | 0.0 | 0.00 | 0.00 | 0.00 | 98 | 1017.1 |
| 20260506080841 | 10 | 192 | 0.0 | 1.6 | 0.00 | 0.00 | 0.00 | 99 | 1017.1 |
| 20260506080338 | 10 | 192 | 0.0 | 0.0 | 0.00 | 0.00 | 0.00 | 99 | 1017.0 |
| 20260506073321 | 10 | 198 | 0.0 | 0.0 | 0.00 | 0.00 | 0.00 | 99 | 1017.1 |
| 20260506072818 | 10 | 198 | 0.0 | 0.0 | 0.00 | 0.00 | 0.00 | 98 | 1017.0 |
| 20260506072315 | 10 | 198 | 0.0 | 0.0 | 0.00 | 0.00 | 0.00 | 98 | 1016.9 |
| 20260506071813 | 10 | 197 | 0.0 | 0.0 | 0.00 | 0.00 | 0.00 | 98 | 1017.2 |
| 20260506071311 | 10 | 197 | 0.0 | 0.0 | 0.00 | 0.00 | 0.00 | 98 | 1017.1 |
| 20260506070807 | 10 | 198 | 0.0 | 0.0 | 0.00 | 0.00 | 0.00 | 98 | 1016.8 |
| 20260506070305 | 10 | 198 | 0.0 | 0.0 | 0.00 | 0.00 | 0.00 | 98 | 1016.8 |
| 20260506062241 | 11 | 198 | 0.0 | 0.0 | 0.00 | 0.00 | 0.00 | 97 | 1016.7 |
| 20260506061737 | 11 | 198 | 0.0 | 0.0 | 0.00 | 0.00 | 0.00 | 97 | 1016.8 |
| 20260506061235 | 11 | 197 | 0.0 | 0.0 | 0.00 | 0.00 | 0.00 | 97 | 1016.6 |
| 20260506060733 | 11 | 197 | 0.0 | 0.0 | 0.00 | 0.00 | 0.00 | 97 | 1016.6 |
| 20260506060230 | 11 | 197 | 0.0 | 0.0 | 0.00 | 0.00 | 0.00 | 97 | 1016.7 |
| 20260506051202 | 11 | 202 | 0.0 | 0.0 | 0.00 | 0.00 | 0.00 | 95 | 1016.5 |
| 20260506050700 | 11 | 206 | 0.0 | 1.6 | 0.00 | 0.00 | 0.00 | 95 | 1016.5 |
| 20260506050157 | 11 | 222 | 1.6 | 1.6 | 0.00 | 0.00 | 0.00 | 95 | 1016.5 |
| 20260506044648 | 12 | 205 | 0.0 | 0.0 | 0.00 | 0.00 | 0.00 | 94 | 1016.2 |
| 20260506044145 | 12 | 210 | 1.6 | 1.6 | 0.00 | 0.00 | 0.00 | 94 | 1016.0 |
| 20260506043642 | 12 | 232 | 1.6 | 3.2 | 0.00 | 0.00 | 0.00 | 94 | 1016.0 |
| 20260506043140 | 12 | 223 | 1.6 | 1.6 | 0.00 | 0.00 | 0.00 | 94 | 1015.9 |
| 20260506042639 | 12 | 219 | 3.2 | 3.2 | 0.00 | 0.00 | 0.00 | 94 | 1015.9 |
| 20260506042137 | 12 | 219 | 1.6 | 1.6 | 0.00 | 0.00 | 0.00 | 93 | 1015.7 |
| 20260506041635 | 12 | 214 | 1.6 | 3.2 | 0.00 | 0.00 | 0.00 | 93 | 1015.9 |
| 20260506041131 | 12 | 204 | 0.0 | 1.6 | 0.00 | 0.00 | 0.00 | 93 | 1015.8 |
| 20260506040629 | 12 | 292 | 4.8 | 4.8 | 0.00 | 0.00 | 0.00 | 93 | 1015.8 |
| 20260506040126 | 12 | 331 | 3.2 | 3.2 | 0.00 | 0.00 | 0.00 | 93 | 1015.7 |
| 20260506035622 | 12 | 271 | 4.8 | 4.8 | 0.00 | 0.00 | 0.00 | 93 | 1015.6 |
| 20260506035119 | 12 | 296 | 6.4 | 8.0 | 0.00 | 0.00 | 0.00 | 92 | 1015.5 |
| 20260506034616 | 12 | 250 | 3.2 | 3.2 | 0.00 | 0.00 | 0.00 | 92 | 1015.2 |
| 20260506034114 | 12 | 209 | 3.2 | 3.2 | 0.00 | 0.00 | 0.00 | 92 | 1015.3 |
| 20260506033611 | 12 | 249 | 1.6 | 1.6 | 0.00 | 0.00 | 0.00 | 92 | 1015.3 |
| 20260506033108 | 12 | 232 | 1.6 | 3.2 | 0.00 | 0.00 | 0.00 | 91 | 1015.1 |
| 20260506032605 | 12 | 295 | 3.2 | 4.8 | 0.00 | 0.00 | 0.00 | 91 | 1014.9 |
| 20260506032102 | 12 | 292 | 3.2 | 4.8 | 0.00 | 0.00 | 0.00 | 90 | 1014.7 |
| 20260506031559 | 12 | 229 | 3.2 | 4.8 | 0.00 | 0.00 | 0.00 | 90 | 1014.7 |
| 20260506031056 | 12 | 243 | 4.8 | 8.0 | 0.00 | 0.00 | 0.00 | 89 | 1014.9 |
| 20260506030554 | 13 | 202 | 1.6 | 1.6 | 0.00 | 0.00 | 0.00 | 89 | 1014.7 |
| 20260506030051 | 13 | 223 | 3.2 | 3.2 | 0.00 | 0.00 | 0.00 | 88 | 1014.8 |
| 20260506025548 | 13 | 211 | 3.2 | 3.2 | 0.00 | 0.00 | 0.00 | 88 | 1014.6 |
| 20260506025044 | 13 | 206 | 3.2 | 3.2 | 0.00 | 0.00 | 0.00 | 87 | 1014.5 |
| 20260506024541 | 13 | 305 | 4.8 | 4.8 | 0.00 | 0.00 | 0.00 | 86 | 1014.4 |
| 20260506024037 | 13 | 305 | 4.8 | 4.8 | 0.00 | 0.00 | 0.00 | 86 | 1014.4 |
| 20260506023533 | 13 | 246 | 3.2 | 3.2 | 0.00 | 0.00 | 0.00 | 85 | 1014.4 |
| 20260506023031 | 13 | 281 | 4.8 | 4.8 | 0.00 | 0.00 | 0.00 | 85 | 1014.4 |
| 20260506022529 | 13 | 262 | 4.8 | 8.0 | 0.00 | 0.00 | 0.00 | 84 | 1014.4 |
| 20260506022026 | 13 | 299 | 4.8 | 4.8 | 0.00 | 0.00 | 0.00 | 84 | 1014.2 |
| 20260506021523 | 14 | 209 | 3.2 | 3.2 | 0.00 | 0.00 | 0.00 | 83 | 1014.4 |
| 20260506021020 | 14 | 313 | 4.8 | 4.8 | 0.00 | 0.00 | 0.00 | 83 | 1014.3 |
| 20260506020518 | 14 | 234 | 4.8 | 9.7 | 0.00 | 0.00 | 0.00 | 82 | 1014.4 |
| 20260506020015 | 15 | 317 | 4.8 | 8.0 | 0.00 | 0.00 | 0.00 | 81 | 1014.3 |
| 20260506015513 | 15 | 235 | 6.4 | 9.7 | 0.00 | 0.00 | 0.00 | 81 | 1014.0 |
| 20260506015009 | 15 | 225 | 6.4 | 9.7 | 0.00 | 0.00 | 0.00 | 80 | 1014.2 |
| 20260506014507 | 15 | 290 | 4.8 | 8.0 | 0.00 | 0.00 | 0.00 | 79 | 1014.1 |
| 20260506014003 | 15 | 25 | 3.2 | 3.2 | 0.00 | 0.00 | 0.00 | 79 | 1014.0 |
| 20260506013500 | 15 | 241 | 4.8 | 4.8 | 0.00 | 0.00 | 0.00 | 78 | 1014.0 |
| 20260506012956 | 15 | 305 | 6.4 | 9.7 | 0.00 | 0.00 | 0.00 | 76 | 1013.9 |
| 20260506012453 | 16 | 284 | 6.4 | 9.7 | 0.00 | 0.00 | 0.00 | 75 | 1013.8 |
| 20260506011950 | 16 | 248 | 3.2 | 3.2 | 0.00 | 0.00 | 0.00 | 76 | 1013.8 |
| 20260506011447 | 16 | 318 | 6.4 | 11.3 | 0.00 | 0.00 | 0.00 | 75 | 1014.0 |
| 20260506010944 | 16 | 284 | 4.8 | 4.8 | 0.00 | 0.00 | 0.00 | 75 | 1013.9 |
| 20260506010443 | 16 | 312 | 9.7 | 11.3 | 0.00 | 0.00 | 0.00 | 76 | 1014.0 |
| 20260506005939 | 16 | 290 | 11.3 | 16.1 | 0.00 | 0.00 | 0.00 | 74 | 1014.1 |
| 20260506005437 | 16 | 270 | 8.0 | 12.9 | 0.00 | 0.00 | 0.00 | 74 | 1014.0 |
| 20260506004932 | 16 | 358 | 8.0 | 14.5 | 0.00 | 0.00 | 0.00 | 72 | 1013.9 |
| 20260506004430 | 16 | 218 | 4.8 | 8.0 | 0.00 | 0.00 | 0.00 | 73 | 1013.8 |
| 20260506003926 | 16 | 224 | 4.8 | 9.7 | 0.00 | 0.00 | 0.00 | 73 | 1013.8 |
| 20260506003423 | 16 | 286 | 8.0 | 12.9 | 0.00 | 0.00 | 0.00 | 73 | 1013.7 |
| 20260506002919 | 16 | 287 | 9.7 | 14.5 | 0.00 | 0.00 | 0.00 | 73 | 1013.6 |
| 20260506002415 | 16 | 305 | 8.0 | 11.3 | 0.00 | 0.00 | 0.00 | 73 | 1013.8 |
| 20260506001910 | 17 | 324 | 11.3 | 14.5 | 0.00 | 0.00 | 0.00 | 73 | 1013.8 |
| 20260506001408 | 17 | 319 | 9.7 | 12.9 | 0.00 | 0.00 | 0.00 | 72 | 1013.7 |
| 20260506000905 | 17 | 331 | 8.0 | 11.3 | 0.00 | 0.00 | 0.00 | 72 | 1013.7 |
| 20260506000403 | 17 | 6 | 9.7 | 14.5 | 0.00 | 0.00 | 0.00 | 71 | 1013.7 |
| 20260505235859 | 17 | 335 | 6.4 | 8.0 | 0.00 | 0.00 | 0.00 | 72 | 1013.7 |
| 20260505235357 | 17 | 277 | 9.7 | 11.3 | 0.00 | 0.00 | 0.00 | 71 | 1013.8 |
| 20260505234853 | 17 | 303 | 11.3 | 16.1 | 0.00 | 0.00 | 0.00 | 69 | 1013.8 |
| 20260505234352 | 16 | 299 | 6.4 | 9.7 | 0.00 | 0.00 | 0.00 | 72 | 1013.6 |
| 20260505233848 | 16 | 315 | 6.4 | 9.7 | 0.00 | 0.00 | 0.00 | 71 | 1013.6 |
| 20260505233346 | 17 | 332 | 6.4 | 9.7 | 0.00 | 0.00 | 0.00 | 69 | 1013.7 |
| 20260505232843 | 17 | 280 | 3.2 | 3.2 | 0.00 | 0.00 | 0.00 | 67 | 1013.6 |
| 20260505232341 | 17 | 291 | 8.0 | 12.9 | 0.00 | 0.00 | 0.00 | 68 | 1013.8 |
| 20260505231837 | 16 | 220 | 8.0 | 14.5 | 0.00 | 0.00 | 0.00 | 69 | 1013.7 |
| 20260505231335 | 17 | 248 | 8.0 | 9.7 | 0.00 | 0.00 | 0.00 | 68 | 1013.7 |
| 20260505230833 | 17 | 352 | 14.5 | 17.7 | 0.00 | 0.00 | 0.00 | 68 | 1013.7 |
| 20260505230330 | 17 | 349 | 11.3 | 12.9 | 0.00 | 0.00 | 0.00 | 68 | 1013.9 |
| 20260505225826 | 17 | 333 | 9.7 | 14.5 | 0.00 | 0.00 | 0.00 | 68 | 1013.9 |
| 20260505225324 | 17 | 260 | 6.4 | 8.0 | 0.00 | 0.00 | 0.00 | 68 | 1013.9 |
| 20260505224819 | 17 | 265 | 6.4 | 9.7 | 0.00 | 0.00 | 0.00 | 67 | 1014.0 |
| 20260505224317 | 18 | 332 | 8.0 | 9.7 | 0.00 | 0.00 | 0.00 | 63 | 1014.2 |
| 20260505223814 | 18 | 296 | 3.2 | 3.2 | 0.00 | 0.00 | 0.00 | 64 | 1014.2 |
| 20260505223311 | 18 | 301 | 6.4 | 11.3 | 0.00 | 0.00 | 0.00 | 63 | 1014.2 |
| 20260505222806 | 18 | 287 | 9.7 | 14.5 | 0.00 | 0.00 | 0.00 | 65 | 1014.1 |
| 20260505222305 | 18 | 304 | 9.7 | 12.9 | 0.00 | 0.00 | 0.00 | 62 | 1014.2 |
| 20260505221800 | 18 | 297 | 8.0 | 11.3 | 0.00 | 0.00 | 0.00 | 65 | 1014.2 |
| 20260505221257 | 18 | 297 | 8.0 | 11.3 | 0.00 | 0.00 | 0.00 | 63 | 1014.2 |
| 20260505220754 | 18 | 356 | 8.0 | 11.3 | 0.00 | 0.00 | 0.00 | 62 | 1014.3 |
| 20260505220251 | 18 | 346 | 6.4 | 9.7 | 0.00 | 0.00 | 0.00 | 64 | 1014.3 |
| 20260505215749 | 18 | 280 | 4.8 | 8.0 | 0.00 | 0.00 | 0.00 | 64 | 1014.7 |
| 20260505215246 | 18 | 271 | 8.0 | 11.3 | 0.00 | 0.00 | 0.00 | 63 | 1014.5 |
| 20260505214744 | 17 | 229 | 3.2 | 3.2 | 0.00 | 0.00 | 0.00 | 63 | 1014.4 |
| 20260505214241 | 17 | 340 | 8.0 | 11.3 | 0.00 | 0.00 | 0.00 | 63 | 1014.5 |
| 20260505213738 | 17 | 307 | 14.5 | 20.9 | 0.00 | 0.00 | 0.00 | 63 | 1014.5 |
| 20260505213236 | 18 | 297 | 11.3 | 20.9 | 0.00 | 0.00 | 0.00 | 62 | 1014.6 |
| 20260505212731 | 18 | 283 | 3.2 | 4.8 | 0.00 | 0.00 | 0.00 | 62 | 1014.6 |
| 20260505212229 | 18 | 307 | 9.7 | 11.3 | 0.00 | 0.00 | 0.00 | 63 | 1014.7 |
| 20260505211726 | 18 | 12 | 8.0 | 11.3 | 0.00 | 0.00 | 0.00 | 62 | 1014.6 |
| 20260505211223 | 17 | 231 | 4.8 | 4.8 | 0.00 | 0.00 | 0.00 | 63 | 1014.6 |
| 20260505210719 | 17 | 299 | 11.3 | 14.5 | 0.00 | 0.00 | 0.00 | 63 | 1014.7 |
| 20260505210216 | 18 | 358 | 16.1 | 22.5 | 0.00 | 0.00 | 0.00 | 61 | 1014.5 |
| 20260505205714 | 17 | 212 | 4.8 | 4.8 | 0.00 | 0.00 | 0.00 | 63 | 1014.4 |
| 20260505205212 | 17 | 304 | 9.7 | 11.3 | 0.00 | 0.00 | 0.00 | 63 | 1014.6 |
| 20260505204708 | 17 | 331 | 9.7 | 11.3 | 0.00 | 0.00 | 0.00 | 64 | 1014.5 |
| 20260505204206 | 17 | 237 | 11.3 | 17.7 | 0.00 | 0.00 | 0.00 | 64 | 1014.7 |
| 20260505203703 | 17 | 274 | 11.3 | 14.5 | 0.00 | 0.00 | 0.00 | 63 | 1014.6 |
| 20260505203200 | 17 | 251 | 11.3 | 14.5 | 0.00 | 0.00 | 0.00 | 64 | 1014.6 |
| 20260505202655 | 17 | 292 | 4.8 | 4.8 | 0.00 | 0.00 | 0.00 | 65 | 1014.8 |
| 20260505202152 | 17 | 352 | 6.4 | 9.7 | 0.00 | 0.00 | 0.00 | 63 | 1014.7 |
| 20260505201648 | 17 | 343 | 8.0 | 9.7 | 0.00 | 0.00 | 0.00 | 62 | 1014.6 |